Погода в Булуне

Россия / Республика Саха (Якутия)     63°01′07″N   133°28′20″E
темп.,
°C
ветер,
м/с
пор.,
м/с
влажн.,
%
обл.,
%
осадки,
мм/ч
давл.,
гПа
погр.,
м
27 февраля, сб
сб2700:00−35в119919 0.0 103519
03:00−35в12999 0.0 103319
06:00−36в12980 0.0 103219
09:00−33в12950 0.0 103181
12:00−27всв228616 0.0 1029310
15:00−25в248831 0.0 1026320
18:00−30в22943 0.0 102519
21:00−32ссв119110 0.0 102219
28 февраля, вс
вс2800:00−31св118890 0.0 101919
03:00−30ссв118595 0.0 101719
06:00−29ссв0183100 0.0 101619
09:00−27ссз1184100 0.0 101669
12:00−22в1278100 0.0 1017252
15:00−20юв138276 0.0 1018498
18:00−24ю119696 0.0 102120
21:00−25ююз129898 0.1 102225
1 марта, пн
пн100:00−27з2598100 0.1 1023168
03:00−28зюз2497100 0.1 1024221
06:00−29юз1397100 0.1 1024119
09:00−28зюз1295100 0.1 1025216
12:00−25юз1283100 0.0 1024657
15:00−25зюз1283100 0.1 1024779
18:00−27зюз1296100 0.1 102619
21:00−29зюз119798 0.1 102619
2 марта, вт
вт200:00−31юз119893 0.0 102619
03:00−32юз119893 0.0 102519
06:00−34зюз119986 0.0 102619
09:00−32юз119676 0.0 102661
12:00−27з128689 0.0 1025443
15:00−26з128495 0.0 1025648
18:00−28зюз1199100 0.1 102519
21:00−28зюз1199100 0.3 102619
3 марта, ср
ср300:00−29з1199100 0.1 102519
03:00−29з0099100 0.2 102519
06:00−29зсз0098100 0.1 102419
09:00−28зсз0096100 0.1 1023140
12:00−26зсз1188100 0.1 1022453
15:00−25зсз1285100 0.1 1020635
18:00−28зсз1297100 0.0 101919
21:00−30зюз2298100 0.1 101824